Regional Weather Roundup
Issued by NWS Jackson, KY

Home | Current Version | Previous Version | Text Only | Print | Product List | Glossary On
Versions: 1 2 3 4 5 6 7 8 9 10 11 12 13 14 15 16 17 18 19 20 21 22 23 24 25 26 27
000
ASUS43 KJKL 241110
RWRJKL

EAST KENTUCKY HOURLY WEATHER ROUNDUP
NATIONAL WEATHER SERVICE JACKSON KY
700 AM EDT SAT JUN 24 2017

NOTE: "FAIR" INDICATES FEW OR NO CLOUDS BELOW 12,000 FEET WITH
NO SIGNIFICANT WEATHER AND/OR OBSTRUCTIONS TO VISIBILITY.

* THESE REPORTS ARE NOT UNDER NWS QUALITY CONTROL AND MAY NOT
  REPORT WEATHER SUCH AS PRECIPITATION AND FOG.

KYZ079-080-083-085-087-088-110-112-115-119-120-241200
...EASTERN KENTUCKY...

CITY           SKY/WX    TMP DP  RH WIND       PRES   REMARKS
JACKSON        FOG       66  65  96 CALM      29.95R VSB 1/2
LONDON         CLOUDY    69  67  93 CALM      29.96R
SOMERSET*      MOCLDY    68  68 100 CALM      29.98R
MONTICELLO*    MOCLDY    69  68  96 NW5       29.99R
WILLIAMSBURG*  CLOUDY    68  68 100 CALM      29.97R VSB 1/2
MIDDLESBORO*   CLOUDY    67  67 100 CALM      29.97R
HARLAN APT*    CLOUDY    64  63  94 CALM      29.97R
PIKE CO APT*   CLOUDY    64  64 100 CALM      29.96R
BIG SANDY APT* CLOUDY    65  65 100 CALM      29.96R
MOREHEAD APT*  CLOUDY    66  64  94 SW3       29.96R FOG
$$

KYZ035-036-041-042-044-050-067-078-099-241200
...CENTRAL KENTUCKY...

CITY           SKY/WX    TMP DP  RH WIND       PRES   REMARKS
DANVILLE*      CLOUDY    64  64 100 CALM      29.97R FOG
LEXINGTON      FOG       64  63  96 S3        29.95R VSB 1/4
FRANKFORT      PTCLDY    65  62  90 CALM      29.94R
LOUISVILLE     PTCLDY    67  63  87 NW6       29.95R
LEBANON*         N/A    N/A N/A N/A MISG        N/A
GLASGOW*       CLOUDY   N/A N/A N/A CALM      29.98R FOG
BOWLING GREEN  CLEAR     67  67 100 W3        29.98R
$$

KYZ091>093-OHZ055-061-077-WVZ005-015-034-035-042-241200
...SOUTHERN OHIO/WEST VIRGINIA...

CITY           SKY/WX    TMP DP  RH WIND       PRES   REMARKS
COVINGTON      PTCLDY    63  62  97 W8        29.93R
COLUMBUS       PTCLDY    63  63 100 SE3       29.87R
DAYTON         PTCLDY    62  59  90 W12       29.91R
WILMINGTON     CLEAR     63  63 100 W8        29.91R
HUNTINGTON     CLOUDY    67  65  93 W5        29.92R FOG
CHARLESTON     CLOUDY    67  64  90 CALM      29.92R
PINEVILLE*     CLOUDY    65  64  96 MISG      30.01S
BECKLEY        CLOUDY    62  60  93 SW7       29.98R
BLUEFIELD      MOCLDY    60  59  96 W7        30.01R
LOGAN CO APT*  FOG       64  64 100 CALM      29.96R VSB 1/2
$$

VAZ002-007-008-TNZ017-027-036-066-071-241200
...SOUTHWEST VIRGINIA/EAST TENNESSEE...

CITY           SKY/WX    TMP DP  RH WIND       PRES   REMARKS
WISE*          CLOUDY    63  63 100 CALM      30.02R
JONESVILLE*    PTSUNNY   66  64  94 CALM      29.99R
ABINGDON*      CLOUDY    67  67 100 W5        30.00R
BRISTOL        CLOUDY    67  66  97 CALM      29.98R
MORRISTOWN*    CLOUDY    68  68 100 CALM      29.96R
KNOXVILLE      LGT RAIN  72  71  97 SW9       29.94R
LAFOLLETTE*    CLOUDY    70  70 100 CALM      29.99R
OAK RIDGE      LGT RAIN  68  66  93 VRB3      29.96S
CROSSVILLE     CLOUDY    71  69  93 N5        30.00R
NASHVILLE      CLOUDY    71  66  84 NW5       29.98R
$$

...KEY TO REMARKS...
VSB - VISIBILITY IN MILES
WCI - WIND CHILL INDEX
HX  - HEAT INDEX

$$




USA.gov is the U.S. government's official web portal to all federal, state and local government web resources and services.